Weather History for Clovis, NM

Change the Weather History Date:

Tuesday, October 8, 2013

  Actual Average Record
Temperature  
Mean Temperature 61 °F -  
Max Temperature 80 °F 73 °F 94 °F (1979)
Min Temperature 42 °F 45 °F 27 °F (1970)
Degree Days  
Heating Degree Days 4    
Growing Degree Days 11 (Base 50)    
Moisture  
Dew Point 26 °F    
Average Humidity 29    
Maximum Humidity 49    
Minimum Humidity 14    
Precipitation  
Precipitation 0.00 in - - ()
Sea Level Pressure  
Sea Level Pressure 30.04 in    
Wind  
Wind Speed 9 mph (SSW)    
Max Wind Speed 25 mph    
Max Gust Speed 31 mph    
Visibility 10 miles    
Events      
Averages and records for this station are not official NWS values.
T = Trace of Precipitation, MM = Missing Value Source: NWS Daily Summary

Daily Weather History Graph

Daily Weather History Graph

Search for Another Location

Airport:

Trip Planner

Search our weather history database for the weather conditions in past years. The results will help you decide how hot, cold, wet, or windy it might be!

Date:

Astronomy

Oct. 08, 2013 Rise Set
Actual Time 6:52 AM MDT 6:26 PM MDT
Civil Twilight 6:27 AM MDT 6:51 PM MDT
Nautical Twilight 5:58 AM MDT 7:20 PM MDT
Astronomical Twilight 5:28 AM MDT 7:49 PM MDT
Moon 10:39 AM MDT (10/8) 9:14 PM MDT (10/8)
Length of Visible Light 12h 24m
Length of Day
11h 34m
Waxing Crescent, 16% of the Moon is Illuminated
Oct 8
Waxing Crescent
Oct 11
First Quarter
Oct 18
Full
Oct 26
Last Quarter
Nov 3
New

Hourly Weather History & Observations

Time (MDT) Temp. Windchill Dew Point Humidity Pressure Visibility Wind Dir Wind Speed Gust Speed Precip Events Conditions
12:15 AM 48.2 °F - 24.8 °F 40% 30.14 in 10.0 mi South 4.6 mph - N/A   Clear
12:35 AM 46.4 °F 44.3 °F 26.6 °F 46% 30.13 in 10.0 mi SSW 4.6 mph - N/A   Clear
12:55 AM 48.2 °F - 24.8 °F 40% 30.13 in 10.0 mi SW 4.6 mph - N/A   Clear
1:15 AM 48.2 °F - 24.8 °F 40% 30.13 in 10.0 mi Calm Calm - N/A   Clear
1:35 AM 48.2 °F - 24.8 °F 40% 30.13 in 10.0 mi Calm Calm - N/A   Clear
1:55 AM 48.2 °F - 24.8 °F 40% 30.12 in 10.0 mi SW 4.6 mph - N/A   Clear
2:15 AM 48.2 °F - 24.8 °F 40% 30.12 in 10.0 mi SSW 4.6 mph - N/A   Clear
2:35 AM 46.4 °F 42.9 °F 24.8 °F 43% 30.11 in 10.0 mi WSW 6.9 mph - N/A   Clear
2:55 AM 46.4 °F 42.9 °F 24.8 °F 43% 30.11 in 10.0 mi WSW 6.9 mph - N/A   Clear
3:15 AM 46.4 °F 42.9 °F 26.6 °F 46% 30.10 in 10.0 mi SW 6.9 mph - N/A   Clear
3:35 AM 42.8 °F 39.3 °F 24.8 °F 49% 30.11 in 10.0 mi South 5.8 mph - N/A   Clear
4:55 AM 46.4 °F 42.4 °F 24.8 °F 43% 30.10 in 10.0 mi WSW 8.1 mph - N/A   Clear
5:15 AM 42.8 °F 40.1 °F 24.8 °F 49% 30.10 in 10.0 mi SW 4.6 mph - N/A   Clear
5:35 AM 44.6 °F 41.4 °F 24.8 °F 46% 30.10 in 10.0 mi SW 5.8 mph - N/A   Clear
5:55 AM 44.6 °F 40.7 °F 24.8 °F 46% 30.10 in 10.0 mi SW 6.9 mph - N/A   Clear
6:15 AM 44.6 °F 41.4 °F 23.0 °F 43% 30.10 in 10.0 mi SW 5.8 mph - N/A   Clear
6:35 AM 44.6 °F 40.7 °F 24.8 °F 46% 30.09 in 10.0 mi WSW 6.9 mph - N/A   Clear
6:55 AM 44.6 °F 40.2 °F 24.8 °F 46% 30.10 in 10.0 mi WSW 8.1 mph - N/A   Clear
7:15 AM 44.6 °F 40.7 °F 24.8 °F 46% 30.10 in 10.0 mi WSW 6.9 mph - N/A   Clear
7:35 AM 48.2 °F - 26.6 °F 43% 30.10 in 10.0 mi WSW 5.8 mph - N/A   Clear
7:55 AM 53.6 °F - 26.6 °F 35% 30.10 in 10.0 mi WSW 6.9 mph - N/A   Clear
8:15 AM 57.2 °F - 28.4 °F 33% 30.10 in 10.0 mi SW 9.2 mph - N/A   Clear
8:35 AM 57.2 °F - 28.4 °F 33% 30.10 in 10.0 mi SSW 8.1 mph - N/A   Clear
8:55 AM 60.8 °F - 28.4 °F 29% 30.10 in 10.0 mi SSW 12.7 mph - N/A   Clear
9:15 AM 64.4 °F - 30.2 °F 28% 30.10 in 10.0 mi SSW 12.7 mph 19.6 mph N/A   Clear
9:35 AM 68.0 °F - 30.2 °F 24% 30.10 in 10.0 mi South 17.3 mph 21.9 mph N/A   Clear
9:55 AM 68.0 °F - 30.2 °F 24% 30.10 in 10.0 mi SSW 20.7 mph 25.3 mph N/A   Clear
10:15 AM 69.8 °F - 30.2 °F 23% 30.09 in 10.0 mi SSW 20.7 mph 27.6 mph N/A   Clear
10:35 AM 73.4 °F - 30.2 °F 20% 30.09 in 10.0 mi SSW 20.7 mph 24.2 mph N/A   Clear
10:55 AM 73.4 °F - 28.4 °F 19% 30.09 in 10.0 mi SSW 18.4 mph 24.2 mph N/A   Clear
11:15 AM 75.2 °F - 28.4 °F 18% 30.09 in 10.0 mi SW 18.4 mph 25.3 mph N/A   Clear
11:35 AM 73.4 °F - 26.6 °F 18% 30.08 in 10.0 mi SSW 18.4 mph 23.0 mph N/A   Clear
11:55 AM 77.0 °F - 28.4 °F 17% 30.07 in 10.0 mi SW 19.6 mph - N/A   Clear
12:15 PM 78.8 °F - 26.6 °F 15% 30.06 in 10.0 mi SSW 20.7 mph 26.5 mph N/A   Clear
12:35 PM 77.0 °F - 24.8 °F 14% 30.05 in 10.0 mi SSW 19.6 mph 23.0 mph N/A   Clear
12:55 PM 78.8 °F - 26.6 °F 15% 30.03 in 10.0 mi SSW 21.9 mph 29.9 mph N/A   Clear
1:15 PM 80.6 °F - 26.6 °F 14% 30.02 in 10.0 mi SSW 21.9 mph 26.5 mph N/A   Clear
1:35 PM 78.8 °F - 24.8 °F 14% 30.01 in 10.0 mi SSW 25.3 mph 29.9 mph N/A   Clear
1:55 PM 78.8 °F - 26.6 °F 15% 30.00 in 10.0 mi SSW 18.4 mph 24.2 mph N/A   Clear
2:15 PM 80.6 °F - 28.4 °F 15% 29.99 in 10.0 mi South 23.0 mph 27.6 mph N/A   Clear
2:35 PM 80.6 °F - 26.6 °F 14% 29.99 in 10.0 mi SSW 24.2 mph 31.1 mph N/A   Clear
2:55 PM 80.6 °F - 26.6 °F 14% 29.98 in 10.0 mi SSW 21.9 mph 27.6 mph N/A   Clear
3:15 PM 80.6 °F - 26.6 °F 14% 29.98 in 10.0 mi SW 19.6 mph 26.5 mph N/A   Clear
3:35 PM 80.6 °F - 26.6 °F 14% 29.97 in 10.0 mi SW 21.9 mph 25.3 mph N/A   Clear
3:55 PM 78.8 °F - 26.6 °F 15% 29.97 in 10.0 mi SW 15.0 mph - N/A   Clear
4:15 PM 80.6 °F - 26.6 °F 14% 29.96 in 10.0 mi SW 16.1 mph 20.7 mph N/A   Clear
4:35 PM 80.6 °F - 26.6 °F 14% 29.96 in 10.0 mi SSW 11.5 mph 21.9 mph N/A   Clear
4:55 PM 80.6 °F - 26.6 °F 14% 29.95 in 10.0 mi SSW 13.8 mph 17.3 mph N/A   Clear
5:15 PM 78.8 °F - 26.6 °F 15% 29.95 in 10.0 mi SW 12.7 mph 20.7 mph N/A   Clear
5:35 PM 78.8 °F - 26.6 °F 15% 29.95 in 10.0 mi SSW 13.8 mph - N/A   Clear
5:55 PM 77.0 °F - 24.8 °F 14% 29.95 in 10.0 mi SSW 12.7 mph - N/A   Clear
6:15 PM 73.4 °F - 23.0 °F 15% 29.96 in 10.0 mi South 9.2 mph - N/A   Clear
6:35 PM 69.8 °F - 24.8 °F 18% 29.96 in 10.0 mi SSW 9.2 mph - N/A   Clear
6:55 PM 64.4 °F - 24.8 °F 22% 29.96 in 9.0 mi South 8.1 mph - N/A   Clear
7:15 PM 64.4 °F - 24.8 °F 22% 29.97 in 9.0 mi South 9.2 mph - N/A   Clear
7:35 PM 62.6 °F - 24.8 °F 24% 29.97 in 10.0 mi South 8.1 mph - N/A   Clear
7:55 PM 60.8 °F - 24.8 °F 25% 29.97 in 8.0 mi South 8.1 mph - N/A   Clear
8:15 PM 57.2 °F - 24.8 °F 29% 29.98 in 9.0 mi SSE 9.2 mph - N/A   Clear
8:35 PM 55.4 °F - 24.8 °F 31% 29.98 in 10.0 mi South 6.9 mph - N/A   Clear
8:55 PM 55.4 °F - 24.8 °F 31% 29.99 in 10.0 mi SSE 6.9 mph - N/A   Clear
9:15 PM 55.4 °F - 24.8 °F 31% 29.99 in 10.0 mi SSE 6.9 mph - N/A   Clear
9:35 PM 55.4 °F - 24.8 °F 31% 29.99 in 10.0 mi SSE 8.1 mph - N/A   Clear
9:55 PM 53.6 °F - 24.8 °F 33% 29.99 in 10.0 mi SSE 5.8 mph - N/A   Clear
10:15 PM 53.6 °F - 26.6 °F 35% 29.98 in 10.0 mi SSE 9.2 mph - N/A   Clear
10:35 PM 53.6 °F - 24.8 °F 33% 29.98 in 10.0 mi South 6.9 mph - N/A   Clear
10:55 PM 51.8 °F - 26.6 °F 38% 29.98 in 10.0 mi SSE 8.1 mph - N/A   Clear
11:15 PM 51.8 °F - 26.6 °F 38% 29.98 in 10.0 mi South 8.1 mph - N/A   Clear
11:35 PM 55.4 °F - 28.4 °F 36% 29.98 in 10.0 mi South 11.5 mph - N/A   Clear
11:55 PM 53.6 °F - 26.6 °F 35% 29.98 in 10.0 mi South 9.2 mph - N/A   Clear